Tracking 18840 objects as of 18-November-2017
HD Live streaming from Space Station
objects crossing your sky now

HIMAWARI 3 (GMS 3)

Track HIMAWARI 3 (GMS 3) now!
HIMAWARI 3 (GMS 3) is classified as:


NORAD ID: 15152
Int'l Code: 1984-080A
Perigee: 35,902.9 km
Apogee: 35,929.6 km
Inclination: 14.7 °
Period: 1,442.4 minutes
Semi major axis: 42287 km
RCS: 3.6122 m2 (large)
Launch date: August 2, 1984
Source: Japan (JPN)
Launch site: TANEGASHIMA SPACE CENTER (TNSTA)
aabbcc
Your satellite tracking list
Your tracking list is empty




NASA's NSSDC Master Catalog

Two Line Element Set (TLE):
1 15152U 84080A   17321.82804937 -.00000367  00000-0  00000+0 0  9995
2 15152  14.6810 350.3353 0003149  10.1042 124.4038  0.99836389121341
Source of the keplerian elements: AFSPC